This is the latest recevied weather packets stored in our database for station/object NO4D. If no packets are shown the sender has not sent any weather packets the latest 10 day(s).
| Time | Temp. | Humidity | Pressure | Rain* | Wind** | Luminosity | Snow |
|---|---|---|---|---|---|---|---|
| 1778077887 | 21.11° C | 76% | 1014.8 hPa | 0 mm | - | 283 W/m² | - |
| 1778077586 | 20.56° C | 77% | 1014.6 hPa | 0 mm | - | 267 W/m² | - |
| 1778077283 | 20.56° C | 77% | 1014.5 hPa | 0 mm | - | 252 W/m² | - |
| 1778076981 | 20.56° C | 77% | 1014.3 hPa | 0 mm | - | 224 W/m² | - |
| 1778076679 | 20.56° C | 78% | 1014.5 hPa | 0 mm | - | 222 W/m² | - |
| 1778076376 | 20° C | 77% | 1014.5 hPa | 0 mm | - | 219 W/m² | - |
| 1778076073 | 20° C | 78% | 1014.7 hPa | 0 mm | - | 209 W/m² | - |
| 1778075770 | 20° C | 77% | 1014.5 hPa | 0 mm | - | 207 W/m² | - |
| 1778075466 | 20° C | 78% | 1014.5 hPa | 0 mm | - | 183 W/m² | - |
| 1778075163 | 20° C | 78% | 1014.4 hPa | 0 mm | - | 168 W/m² | - |
| 1778074859 | 20° C | 78% | 1014.3 hPa | 0 mm | - | 158 W/m² | - |
| 1778074556 | 19.44° C | 79% | 1014.5 hPa | 0 mm | - | 154 W/m² | - |
| 1778074253 | 20° C | 78% | 1014.7 hPa | 0 mm | - | 136 W/m² | - |
| 1778073950 | 20° C | 78% | 1014.8 hPa | 0 mm | - | 143 W/m² | - |
| 1778073647 | 19.44° C | 79% | 1014.7 hPa | 0 mm | - | 155 W/m² | - |
| 1778073344 | 19.44° C | 79% | 1014.7 hPa | 0 mm | - | 146 W/m² | - |
| 1778073040 | 19.44° C | 79% | 1014.5 hPa | 0 mm | - | 156 W/m² | - |
| 1778072738 | 19.44° C | 79% | 1014.5 hPa | 0 mm | - | 158 W/m² | - |
| 1778072435 | 19.44° C | 79% | 1014.5 hPa | 0 mm | - | 150 W/m² | - |
| 1778072133 | 18.89° C | 79% | 1014.5 hPa | 0 mm | - | 134 W/m² | - |
| 1778071831 | 19.44° C | 79% | 1014.5 hPa | 0 mm | - | 108 W/m² | - |
| 1778071528 | 19.44° C | 80% | 1014.3 hPa | 0 mm | - | 95 W/m² | - |
| 1778071226 | 19.44° C | 79% | 1014.3 hPa | 0 mm | - | 118 W/m² | - |
| 1778070924 | 19.44° C | 79% | 1014.3 hPa | 0 mm | - | 120 W/m² | - |
| 1778070622 | 18.89° C | 80% | 1014.3 hPa | 0 mm | - | 121 W/m² | - |
* Rain latest hour (hover to see other rain measurements)
** Current wind speed in m/s (hover to see current wind gust speed)